TimeEAT,TemperatureF,Dew PointF,Humidity,Sea Level PressureIn,VisibilityMPH,Wind Direction,Wind SpeedMPH,Gust SpeedMPH,PrecipitationIn,Events,Conditions,WindDirDegrees,DateUTC
1:00 AM,80.6,71.6,74,29.86,6.2,ESE,20.7,-,N/A,,Scattered Clouds,120,2012-11-16 22:00:00
2:00 AM,80.6,73.4,79,29.86,6.2,SSE,5.8,-,N/A,,Scattered Clouds,160,2012-11-16 23:00:00
3:00 AM,80,73,75,29.85,19,Calm,Calm,,,,Partly Cloudy,,2012-11-17 00:00:00
4:00 AM,78.8,77.0,94,29.86,-9999.0,South,3.5,-,N/A,Rain,Light Rain,180,2012-11-17 01:00:00
5:00 AM,73.4,71.6,94,29.92,6.2,East,3.5,-,N/A,Rain,Rain,90,2012-11-17 02:00:00
7:00 AM,73.4,73.4,100,29.92,6.2,South,4.6,-,N/A,Rain,Light Rain,180,2012-11-17 04:00:00
8:00 AM,75.2,73.4,94,29.92,6.2,Calm,Calm,-,N/A,,Mostly Cloudy,0,2012-11-17 05:00:00
9:00 AM,79,74,81,29.93,25,SW,4.6,,,,Partly Cloudy,220,2012-11-17 06:00:00
10:00 AM,82.4,75.2,79,29.92,6.2,SW,6.9,-,N/A,,Scattered Clouds,230,2012-11-17 07:00:00
11:00 AM,86.0,73.4,66,29.89,6.2,South,4.6,-,N/A,,Partly Cloudy,180,2012-11-17 08:00:00
1:00 PM,89.6,69.8,52,29.83,6.2,West,4.6,-,N/A,,Scattered Clouds,260,2012-11-17 10:00:00
2:00 PM,91.4,71.6,52,29.80,6.2,NNW,4.6,-,N/A,,Scattered Clouds,340,2012-11-17 11:00:00
3:00 PM,93,72,41,29.77,25,SSW,4.6,,,,Partly Cloudy,210,2012-11-17 12:00:00
4:00 PM,93.2,69.8,46,29.77,6.2,South,4.6,-,N/A,,Scattered Clouds,170,2012-11-17 13:00:00
5:00 PM,93.2,69.8,46,29.77,6.2,SSW,2.3,-,N/A,,Scattered Clouds,210,2012-11-17 14:00:00
7:00 PM,89.6,69.8,52,29.80,6.2,East,6.9,-,N/A,,Scattered Clouds,90,2012-11-17 16:00:00
8:00 PM,87.8,69.8,55,29.80,6.2,East,6.9,-,N/A,,Partly Cloudy,80,2012-11-17 17:00:00
9:00 PM,87,70,49,29.81,25,East,6.9,,,,Scattered Clouds,80,2012-11-17 18:00:00
10:00 PM,86.0,71.6,62,29.83,6.2,East,9.2,-,N/A,,Partly Cloudy,80,2012-11-17 19:00:00
11:00 PM,86.0,71.6,62,29.83,6.2,ENE,6.9,-,N/A,,Partly Cloudy,70,2012-11-17 20:00:00